Theta_e
280 280 280 279 279 279 278 278 279 279 279 279 279 279 279 279 279 278 279 278 278 279
280 280 279 279 279 279 279 281 279 279 279 279 279 279 278 278 278 278 278 278 279 278
280 280 280 279 279 279 279 279 279 279 279 279 279 278 278 278 278 277 278 278 278 278
280 280 280 280 279 279 280 279 279 279 279 278 278 278 277 277 277 277 277 277 277 278
280 280 279 279 279 280 280 280 279 279 279 278 278 278 277 277 277 276 276 277 277 276
280 279 279 279 279 280 278 278 279 279 278 278 278 277 277 277 277 276 276 276 276 276
279 279 279 279 279 279 279 277 275 275 276 276 276 278 277 278 277 276 277 278 277 277
280 280 279 279 279 279 279 278 277 274 273 273 274 276 274 276 275 275 276 277 278 278
279 279 279 279 279 279 278 278 278 276 275 273 276 280 282 281 276 277 276 275 275 276
279 278 278 278 278 278 277 277 277 276 274 273 275 282 283 283 280 276 275 274 275 275
276 276 276 275 275 274 276 273 272 271 271 270 274 282 283 283 280 275 274 272 270 271
272 272 272 272 270 269 269 267 267 270 271 269 273 280 282 281 278 276 273 270 269 270
269 270 269 269 270 270 266 268 269 270 268 269 270 278 280 280 279 276 274 267 267 274
267 268 269 269 268 267 265 266 264 266 268 268 268 270 278 279 277 277 275 271 270 268
Wind_Speed
6 4 4 4 4 3 3 3 3 2 3 3 3 4 4 3 3 4 4 5 4 2
6 5 5 5 4 3 4 3 4 3 2 2 2 3 3 2 3 3 3 3 3 2
7 7 6 5 5 5 4 4 4 3 3 2 1 1 2 2 2 2 2 2 3 2
6 7 6 6 6 6 4 5 5 5 4 3 3 2 1 1 1 2 3 3 2 3
7 7 7 6 6 6 6 6 6 6 5 5 4 4 3 3 3 4 4 4 4 4
7 7 8 7 7 6 5 5 5 5 6 5 5 5 5 5 5 5 5 4 5 5
8 8 7 6 6 6 6 5 4 4 5 5 5 5 5 5 5 5 5 5 5 5
6 6 6 6 6 6 6 5 5 4 5 4 4 4 5 6 5 6 6 6 7 6
6 6 6 5 5 4 5 5 5 5 5 5 5 11 14 11 7 8 8 8 7 7
2 3 3 2 2 2 3 3 4 4 3 6 6 14 16 18 8 8 8 9 8 7
8 7 6 6 5 5 4 3 3 4 4 5 7 17 19 19 10 7 9 10 7 8
7 6 6 6 5 4 3 4 3 3 6 4 7 17 18 17 9 9 10 7 7 8
6 6 5 4 5 3 2 4 4 6 4 6 7 15 18 16 8 9 8 5 7 15
6 5 4 4 3 3 3 4 4 5 5 6 5 8 17 18 9 8 8 6 7 6
Wind_Direction
169 157 171 158 151 148 146 159 146 110 92 75 68 46 34 34 36 35 29 25 27 8
179 173 179 169 152 157 161 167 163 153 126 95 75 58 35 33 33 24 9 3 12 359
182 184 182 170 175 184 193 172 174 190 184 175 147 96 55 13 353 12 345 354 351 348
190 189 187 180 191 192 190 196 197 203 202 208 212 208 203 277 286 325 313 316 325 317
193 186 193 195 201 203 201 201 205 205 208 215 218 218 229 251 267 267 276 282 293 286
196 193 201 203 205 208 203 206 209 203 214 220 226 226 233 238 247 250 252 257 262 262
199 202 203 208 208 208 206 198 214 216 219 221 219 218 229 242 243 245 249 247 246 250
200 209 206 210 210 213 208 212 215 215 232 229 222 227 237 246 244 249 253 249 254 254
196 208 216 217 215 211 227 236 234 231 223 235 243 252 262 262 232 243 242 252 247 245
197 188 191 215 221 261 282 289 278 271 236 254 251 267 273 275 260 239 239 238 247 255
40 41 34 45 32 13 359 339 314 300 290 280 283 292 293 289 276 248 241 235 222 237
23 28 25 16 3 333 354 332 307 286 297 279 284 302 301 298 285 271 258 236 222 234
13 14 6 352 345 322 323 290 303 299 272 276 289 307 306 298 282 275 273 251 240 247
4 348 356 347 322 309 307 311 299 294 290 278 271 292 309 307 295 288 282 261 260 237